Regional Weather Roundup
Issued by NWS Upton, NY

Current Version | Previous Version | Text Only | Print | Product List | Glossary On
Versions: 1 2 3 4 5 6 7 8 9 10 11 12 13 14 15 16 17 18 19 20 21 22 23 24 25 26 27 28 29 30 31 32 33 34 35 36 37 38 39 40 41 42 43 44 45 46 47 48 49 50
000 ASUS41 KOKX 011308 RWROKX REGIONAL WEATHER ROUNDUP NATIONAL WEATHER SERVICE NEW YORK NY 900 AM EDT WED JUL 01 2015 NOTE: "FAIR" INDICATES FEW OR NO CLOUDS BELOW 12,000 FEET WITH NO SIGNIFICANT WEATHER AND/OR OBSTRUCTIONS TO VISIBILITY. NYZ071-072-176-178-NJZ106-104-011400- NEW YORK CITY METRO AREA CITY SKY/WX TMP DP RH WIND PRES REMARKS CENTRAL PARK PTSUNNY 71 67 87 MISG 29.82R FOG LAGUARDIA APRT PTSUNNY 72 64 76 SW12G20 29.78R KENNEDY INTL PTSUNNY 73 65 75 SW10 29.81R NEWARK/LIBERTY PTSUNNY 72 67 84 SW8 29.78S BRNX BOT. GARD N/A 72 64 78 S8 29.79R TETERBORO PTSUNNY 72 65 78 S7 29.77S $$ NYZ177-179-078>081-011400- LONG ISLAND NEW YORK CITY SKY/WX TMP DP RH WIND PRES REMARKS FARMINGDALE MOSUNNY 72 67 84 SW14 29.80R ISLIP PTSUNNY 72 68 87 SW10 29.78R SHIRLEY CLOUDY 71 68 90 S8 29.80R WESTHAMPTON CLOUDY 70 68 93 SW8 29.81R MONTAUK POINT N/A 68 66 93 S8 29.79F $$ NYZ052-065-067-011400- HUDSON VALLEY CITY SKY/WX TMP DP RH WIND PRES REMARKS WHITE PLAINS PTSUNNY 71 67 87 VRB3 29.78S NEWBURGH PTSUNNY 68 68 100 SW9 29.79R MONTGOMERY CLOUDY 70 68 93 MISG 29.76S POUGHKEEPSIE CLOUDY 71 67 87 CALM 29.76R ALBANY LGT RAIN 68 65 90 S8 29.73R $$ NJZ001-105-106-008-010-013-015-019>022-104-011400- NEW JERSEY CITY SKY/WX TMP DP RH WIND PRES REMARKS NEWARK/LIBERTY PTSUNNY 72 67 84 SW8 29.78S TETERBORO PTSUNNY 72 65 78 S7 29.77S CALDWELL PTSUNNY 70 65 84 W5 29.79S MORRISTOWN CLOUDY 72 70 94 SW7 29.80S SOMERVILLE CLOUDY 71 66 84 MISG 29.78S SUSSEX MOSUNNY 69 65 86 SW7 29.78S ANDOVER N/A 69 65 86 SW7 29.80R TRENTON CLOUDY 71 66 84 W10 29.81R MILLVILLE PTSUNNY 74 67 78 SW10G17 29.85S ATLANTIC CITY SUNNY 74 65 73 SW12G18 29.84S WRIGHTSTOWN PTSUNNY 72 68 86 W13 29.80S TOMS RIVER MOSUNNY 73 66 78 SW12 29.82F BELMAR PTSUNNY 72 64 78 SW7 29.81S $$ PAZ047>061-062-071-011400- EASTERN PENNSYLVANIA CITY SKY/WX TMP DP RH WIND PRES REMARKS PHILADELPHIA MOSUNNY 73 66 78 SW10 29.83R ALLENTOWN CLOUDY 69 64 84 W8 29.81R SCRANTON PTSUNNY 68 61 78 SW12G20 29.81R $$ CTZ002-004>006-009-010-012-RIZ004-006-007-MAZ004-011-015-011400- SOUTHERN NEW ENGLAND IN CT CITY SKY/WX TMP DP RH WIND PRES REMARKS BRADLEY INTL CLOUDY 66 63 90 NE3 29.76F HARTFORD CLOUDY 69 66 90 VRB5 29.76S DANBURY PTSUNNY 69 67 93 CALM 29.80R WTRBRY/OXFORD PTSUNNY 70 63 78 CALM 29.80R BRIDGEPORT CLOUDY 72 69 90 SW8 29.78R MERIDEN CLOUDY 73 68 84 CALM 29.76F NEW HAVEN CLOUDY 71 68 90 SW5 29.77R CHESTER CLOUDY 70 70 100 SW5 29.79R GROTON CLOUDY 68 65 90 SE8 29.78R FOG WILLIMANTIC CLOUDY 69 66 90 VRB5 29.77F IN RI CITY SKY/WX TMP DP RH WIND PRES REMARKS PROVIDENCE LGT RAIN 67 65 93 SE14 29.80F BLOCK ISLAND CLOUDY 68 64 88 SE10 29.78F WESTERLY CLOUDY 68 66 93 SE6 29.79F IN MA CITY SKY/WX TMP DP RH WIND PRES REMARKS BOSTON HVY RAIN 65 64 97 E10 29.84F FOG WORCESTER LGT RAIN 65 63 93 SE8 29.81F WESTFIELD CLOUDY 66 64 93 E3 29.77F PROVINCETOWN CLOUDY 66 9 10 SE9 29.88S NANTUCKET CLOUDY 64 62 93 SE14 29.87S FOG $$ ANZ330-335-338-340-345-350-353-355-011400- COASTAL MARINE OBSERVATIONS STATION/POSITION TIME SKY/WX TEMP WIND PRES VSBY WAVE AIR SEA DIR/SP/G HT/PER (UTC) (F) (DEG/KT/KT) (MB) (MI) (FT/S) NY HARB ENTRANCE 1250 70 69 220/ 12/ 14 1008.9 3/ 6 4S FIRE IS 1203 67 N/A 4/ 8 20S FIRE ISLAND 1250 68 65 230/ 10/ 10 1009.3 4/ 8 GREAT SOUTH BAY 1215 71 74 250/ 12/ 14 N/A 23SW MTP 1250 68 65 200/ 12/ 14 1008.4 4/ 8 HUDSON CANYON NOT AVBL KINGS POINT 1200 70 67 210/ 5/ 6 1007.6 CENTRAL LI SOUND NOT AVBL EASTERN LI SOUND 1200 66 150/ 12/ 14 N/A ROBBINS REEF 1200 70 230/ 8/ 11 1007.6 $$ >>>>>>>>>>>>>>>>>>>>>>>>>>>> KEY <<<<<<<<<<<<<<<<<<<<<<<<<<< > < > SKY/WX - SKY CONDITION/PRESENT WEATHER < > TMP - TEMPERATURE IN FAHRENHEIT < > DP - DEWPOINT IN FAHRENHEIT < > RH - RELATIVE HUMIDITY IN PERCENT < > WIND - DIRECTION AND SPEED IN MPH < > PRES - MEAN SEA LEVEL PRESSURE IN INCHES OF HG < > WCI - WIND CHILL INDEX < > VSB - VISIBILITY IN MILES < > HX - HEAT INDEX < > TC - TEMPERATURE IN CELSIUS < > VRB - VARIABLE WIND DIRECTION < > < >>>>>>>>>>>>>>>>>>>>>>>>>>>> KEY <<<<<<<<<<<<<<<<<<<<<<<<<<<

USA.gov is the U.S. government's official web portal to all federal, state and local government web resources and services.